STARLINK-32592, 62035

Orbit data source: Space-Track

STARLINK-32592, 62035 is a payload satellite owned by SpaceX/Seattle (US) in LEO that was launched on Thu, 21 Nov 2024 UTC via an FALCON 9 launch vehicle from the Air Force Eastern Test Range (AFETR). Payload-class satellites include a variety of spacecraft equipped with specific instruments for various scientific and technological missions. These include communications satellites like Starlink; space stations such as the ISS; scientific satellites like the Hubble; Earth observation satellites from companies like Planet Labs, Umbra, and HawkEye 360; GPS; miniature CubeSats for education and research; and military/defense satellites.

Loading next visibility...
Identifier
62035, 2024-216D
Orbit
LEO
Country
Flag of USUS
Related business
Manufacturer
SpaceX/Seattle
Mission
Operational Commercial Communications
Bus & Motor
STARLINK V2M, Unknown motor
Mass
730 kg wet, ~700 kg dry
Launch date (UTC)
2024-11-21 (1 year ago)
Launch vehicle
FALCON 9
Launch site
Air Force Eastern Test Range (AFETR)
Object type
Payload
Rocket body
Debris
Shape & HBR
Box + 2 Pan, 17.7 m
Radar Cross Section
33.884 m², Large (>1 m²)

Expand to show TLE details & history
Last TLE update: 16 hours ago

TLE from 16 hours ago
0 STARLINK-32592
1 62035U 24216D   26140.24161016  .00007618  00000-0  28590-3 0  9994
2 62035  42.9986 219.5828 0000798 296.3697  63.7073 15.27599434 84745
Epoch: 2026-05-20T05:47Z
TLE epoch observation values (Epoch: 2026-05-20T05:47:55.117Z)
Latitude
-0.00001°
Longitude
-105.30085°
Altitude
482.524 km
Speed
7.626 km/s
True Right ascension
14h 38m 19s
True Declination
0° 00' 00"
Sunlit
Object was in full shadow at epoch
Visualization orbit readout
Latitude
Unknown
Longitude
Unknown
Altitude
Unknown
Speed
Unknown
Apparent Right ascension
Unknown
Apparent Declination
Unknown
Sunlit
N/A
Visualization observer readout
Local Sidereal Time
07:09:57
Azimuth
Unknown
Elevation
Unknown
Doppler factor
Unknown
Orbital elements
Apogee altitude
485.484 km
Perigee altitude
484.389 km
Semi-major axis
6,863.073 km
Eccentricity
0.00008
Inclination
42.9986°
RAAN
219.5828°
Arg. of periapsis
296.3697°
True anomaly
63.7155°
Mean anomaly
63.7073°
Eccentric anomaly
63.7114°
Mean motion
3.81738 °/min
Orbital period
94.31 mins
BSTAR
0.0002859
Loading maneuver chart data...
Computing Atmospheric mass density...
Loading historical data...
Loading historical data...
Loading historical data...
Loading historical data...
Loading historical data...
Loading historical data...
Loading historical data...

Documentation

Showing up to 5 results
|